Weather History for KBBD - April, 2013

Change the Weather History Date:

Thursday, April 18, 2013

  Actual Average (KJCT) Record (KJCT)
Temperature  
Mean Temperature 58 °F -  
Max Temperature 73 °F 77 °F 100 °F (2006)
Min Temperature 44 °F 52 °F 36 °F (1999)
Degree Days  
Heating Degree Days 6    
Growing Degree Days 8 (Base 50)    
Moisture  
Dew Point 44 °F    
Average Humidity 67    
Maximum Humidity 100    
Minimum Humidity 36    
Precipitation  
Precipitation 0.00 in - - ()
Sea Level Pressure  
Sea Level Pressure 29.91 in    
Wind  
Wind Speed 16 mph (NNW)    
Max Wind Speed 25 mph    
Max Gust Speed 37 mph    
Visibility 10 miles    
Events Rain    
Averages and records for this station are not official NWS values.
T = Trace of Precipitation, MM = Missing Value Source: NWS Daily Summary

Daily Weather History Graph

Daily Weather History Graph

Search for Another Location

Airport or City:

Trip Planner

Search our weather history database for the weather conditions in past years. The results will help you decide how hot, cold, wet, or windy it might be!

Date:

Astronomy

Apr. 18, 2013 Rise Set
Actual Time 7:05 AM CDT 8:07 PM CDT
Civil Twilight 6:40 AM CDT 8:32 PM CDT
Nautical Twilight 6:11 AM CDT 9:02 PM CDT
Astronomical Twilight 5:40 AM CDT 9:33 PM CDT
Moon 1:22 PM CDT (4/18) 2:18 AM CDT (4/18)
Length of Visible Light 13h 52m
Length of Day
13h 02m
First Quarter, 52% of the Moon is Illuminated
Apr 18
First Quarter
Apr 25
Full
May 2
Last Quarter
May 9
New
May 17
First Quarter

Hourly Weather History & Observations

Time (CDT) Temp. Windchill Dew Point Humidity Pressure Visibility Wind Dir Wind Speed Gust Speed Precip Events Conditions
12:15 AM 73.4 °F - 69.8 °F 88% 29.68 in 9.0 mi SSE 12.7 mph - N/A   Overcast
12:35 AM 73.4 °F - 69.8 °F 88% 29.68 in 9.0 mi SSE 11.5 mph - N/A   Overcast
12:55 AM 73.4 °F - 69.8 °F 88% 29.67 in 9.0 mi SSE 11.5 mph - N/A   Overcast
1:15 AM 73.4 °F - 69.8 °F 88% 29.67 in 10.0 mi SSE 13.8 mph - N/A   Overcast
1:35 AM 73.4 °F - 69.8 °F 88% 29.67 in 10.0 mi SSE 12.7 mph - N/A   Overcast
1:55 AM 73.4 °F - 69.8 °F 88% 29.66 in 9.0 mi SSE 15.0 mph - N/A   Overcast
2:15 AM 73.4 °F - 69.8 °F 88% 29.64 in 10.0 mi SSE 16.1 mph - N/A   Overcast
2:35 AM 73.4 °F - 69.8 °F 88% 29.62 in 10.0 mi SSE 15.0 mph - N/A   Overcast
2:55 AM 73.4 °F - 69.8 °F 88% 29.63 in 10.0 mi SSE 11.5 mph - N/A   Overcast
3:15 AM 73.4 °F - 68.0 °F 83% 29.63 in 10.0 mi SSE 15.0 mph - N/A   Overcast
3:35 AM 73.4 °F - 68.0 °F 83% 29.62 in 10.0 mi SSE 10.4 mph - N/A   Overcast
3:55 AM 66.2 °F - 55.4 °F 68% 29.70 in 10.0 mi NW 25.3 mph 36.8 mph N/A   Overcast
4:15 AM 59.0 °F - 55.4 °F 88% 29.74 in 10.0 mi NNW 20.7 mph - N/A Rain Light Rain
4:35 AM 53.6 °F - 53.6 °F 100% 29.74 in - NNW 20.7 mph - N/A Rain Heavy Rain
4:55 AM 51.8 °F - 51.8 °F 100% 29.76 in - NNW 17.3 mph - N/A Rain Heavy Rain
5:15 AM 51.8 °F - 51.8 °F 100% 29.80 in 8.0 mi NNW 16.1 mph - N/A Rain Rain
5:35 AM 50.0 °F - 50.0 °F 100% 29.82 in 10.0 mi NNW 16.1 mph - N/A Rain Light Rain
5:55 AM 50.0 °F - 48.2 °F 94% 29.85 in 9.0 mi North 16.1 mph - N/A Rain Light Rain
6:15 AM 48.2 °F - 48.2 °F 100% 29.85 in 10.0 mi NNW 16.1 mph - N/A Rain Light Rain
6:35 AM 48.2 °F - 48.2 °F 100% 29.88 in 10.0 mi NNW 12.7 mph - N/A   Mostly Cloudy
6:55 AM 46.4 °F 39.2 °F 44.6 °F 93% 29.88 in 10.0 mi NNW 18.4 mph 25.3 mph N/A   Overcast
7:15 AM 46.4 °F 39.8 °F 44.6 °F 93% 29.89 in 10.0 mi NNW 16.1 mph - N/A   Mostly Cloudy
7:35 AM 46.4 °F 38.3 °F 42.8 °F 87% 29.90 in 10.0 mi NW 23.0 mph - N/A   Overcast
7:55 AM 44.6 °F 37.8 °F 42.8 °F 93% 29.92 in 10.0 mi NNW 15.0 mph - N/A   Overcast
8:15 AM 44.6 °F 36.6 °F 39.2 °F 81% 29.93 in 10.0 mi NNW 19.6 mph - N/A   Overcast
8:35 AM 44.6 °F 37.2 °F 39.2 °F 81% 29.94 in 10.0 mi NNW 17.3 mph 31.1 mph N/A   Overcast
8:55 AM 44.6 °F 36.4 °F 39.2 °F 81% 29.95 in 10.0 mi NW 20.7 mph - N/A   Overcast
9:15 AM 44.6 °F 37.2 °F 39.2 °F 81% 29.96 in 10.0 mi NNW 17.3 mph - N/A   Overcast
9:35 AM 44.6 °F 37.4 °F 39.2 °F 81% 29.97 in 10.0 mi NNW 16.1 mph - N/A   Overcast
9:55 AM 46.4 °F 38.7 °F 39.2 °F 76% 29.97 in 10.0 mi NNW 20.7 mph - N/A   Overcast
10:15 AM 46.4 °F 39.2 °F 39.2 °F 76% 29.97 in 10.0 mi NNW 18.4 mph - N/A   Overcast
10:35 AM 48.2 °F - 37.4 °F 66% 29.98 in 10.0 mi NNW 20.7 mph - N/A   Mostly Cloudy
10:55 AM 48.2 °F - 37.4 °F 66% 29.98 in 10.0 mi NNW 20.7 mph - N/A   Mostly Cloudy
11:15 AM 48.2 °F - 37.4 °F 66% 29.99 in 10.0 mi NW 19.6 mph - N/A   Mostly Cloudy
11:35 AM 48.2 °F - 37.4 °F 66% 29.99 in 10.0 mi NNW 15.0 mph - N/A   Overcast
11:55 AM 50.0 °F - 39.2 °F 66% 29.99 in 10.0 mi NW 17.3 mph - N/A   Mostly Cloudy
12:15 PM 51.8 °F - 37.4 °F 58% 29.99 in 10.0 mi NNW 17.3 mph - N/A   Mostly Cloudy
12:35 PM 51.8 °F - 39.2 °F 62% 29.99 in 10.0 mi NNW 19.6 mph - N/A   Scattered Clouds
12:55 PM 51.8 °F - 37.4 °F 58% 29.99 in 10.0 mi NNW 15.0 mph - N/A   Scattered Clouds
1:15 PM 53.6 °F - 39.2 °F 58% 29.99 in 10.0 mi NNW 16.1 mph - N/A   Partly Cloudy
1:35 PM 53.6 °F - 39.2 °F 58% 29.98 in 10.0 mi NNW 17.3 mph - N/A   Clear
1:55 PM 55.4 °F - 39.2 °F 54% 29.98 in 10.0 mi NNW 18.4 mph - N/A   Clear
2:15 PM 55.4 °F - 39.2 °F 54% 29.98 in 10.0 mi NNW 13.8 mph - N/A   Clear
2:35 PM 57.2 °F - 39.2 °F 51% 29.97 in 10.0 mi NW 18.4 mph - N/A   Clear
2:55 PM 59.0 °F - 39.2 °F 48% 29.97 in 10.0 mi NNW 16.1 mph - N/A   Clear
3:35 PM 59.0 °F - 39.2 °F 48% 29.97 in 10.0 mi North 13.8 mph - N/A   Clear
3:55 PM 60.8 °F - 39.2 °F 45% 29.97 in 10.0 mi North 13.8 mph - N/A   Clear
4:15 PM 60.8 °F - 37.4 °F 42% 29.97 in 10.0 mi NNW 21.9 mph - N/A   Clear
4:35 PM 60.8 °F - 37.4 °F 42% 29.96 in 10.0 mi NNW 18.4 mph - N/A   Clear
4:55 PM 60.8 °F - 35.6 °F 39% 29.97 in 10.0 mi North 21.9 mph - N/A   Clear
5:15 PM 60.8 °F - 33.8 °F 36% 29.98 in 10.0 mi NNW 17.3 mph - N/A   Clear
5:35 PM 59.0 °F - 33.8 °F 39% 29.98 in 10.0 mi North 20.7 mph - N/A   Clear
5:55 PM 59.0 °F - 33.8 °F 39% 29.99 in 10.0 mi North 17.3 mph - N/A   Clear
6:15 PM 60.8 °F - 33.8 °F 36% 30.00 in 10.0 mi NNW 18.4 mph - N/A   Clear
6:35 PM 59.0 °F - 32.0 °F 36% 30.01 in 10.0 mi NNW 17.3 mph - N/A   Clear
6:55 PM 57.2 °F - 32.0 °F 38% 30.02 in 10.0 mi North 17.3 mph - N/A   Clear
7:15 PM 57.2 °F - 30.2 °F 36% 30.03 in 10.0 mi North 16.1 mph - N/A   Clear
7:35 PM 57.2 °F - 30.2 °F 36% 30.04 in 10.0 mi North 16.1 mph - N/A   Clear
7:55 PM 55.4 °F - 30.2 °F 38% 30.05 in 10.0 mi North 13.8 mph - N/A   Clear
8:15 PM 53.6 °F - 30.2 °F 41% 30.06 in 10.0 mi North 12.7 mph - N/A   Clear
8:35 PM 53.6 °F - 30.2 °F 41% 30.07 in 10.0 mi North 11.5 mph - N/A   Clear
9:55 PM 48.2 °F - 30.2 °F 50% 30.12 in 10.0 mi North 10.4 mph - N/A   Clear
10:35 PM 48.2 °F - 28.4 °F 46% 30.13 in 10.0 mi North 11.5 mph - N/A   Clear
10:55 PM 48.2 °F - 28.4 °F 46% 30.14 in 10.0 mi North 13.8 mph - N/A   Clear
11:15 PM 48.2 °F - 28.4 °F 46% 30.14 in 10.0 mi North 13.8 mph - N/A   Clear
11:35 PM 46.4 °F 41.1 °F 28.4 °F 50% 30.14 in 10.0 mi North 11.5 mph - N/A   Clear
11:55 PM 46.4 °F 41.1 °F 28.4 °F 50% 30.15 in 10.0 mi North 11.5 mph - N/A   Clear